FW7499 Weather Reports


Display with metric or nautical units.
time (UTC)temp
F
wind
direction
speed
MPH
gust
MPH
rain 1hr
in
rain 24hr
in
rain mn
in
humidity
%
barometer
mb
20260505201007 58 340 2.0 8.0 0.00 0.02 0.02 42 1012.8
20260505200503 59 285 2.0 8.0 0.00 0.02 0.02 38 1012.8
20260505200012 59 246 2.0 10.0 0.00 0.02 0.02 40 1012.7
20260505195508 59 312 3.0 11.0 0.00 0.02 0.02 42 1012.8
20260505195006 59 297 4.0 11.0 0.00 0.02 0.02 40 1012.8
20260505194514 58 306 3.0 9.0 0.00 0.02 0.02 39 1012.9
20260505194006 58 325 3.0 10.0 0.00 0.02 0.02 38 1012.9
20260505193506 58 9 4.0 10.0 0.00 0.02 0.02 41 1013.1
20260505193017 58 25 5.0 13.0 0.00 0.02 0.02 38 1013.1
20260505192506 58 339 4.0 13.0 0.00 0.02 0.02 40 1012.9
20260505192006 57 342 3.0 11.0 0.00 0.02 0.02 40 1013.0
20260505191517 57 315 4.0 11.0 0.00 0.02 0.02 40 1013.2
20260505191010 57 327 2.0 12.0 0.00 0.02 0.02 41 1013.2
20260505190505 57 319 4.0 12.0 0.00 0.02 0.02 40 1013.3
20260505190011 57 320 1.0 11.0 0.00 0.02 0.02 40 1013.3
20260505185506 56 346 3.0 11.0 0.00 0.02 0.02 41 1013.4
20260505185008 57 325 2.0 9.0 0.00 0.02 0.02 41 1013.4
20260505184516 58 344 2.0 9.0 0.00 0.02 0.02 40 1013.3
20260505184006 58 304 3.0 9.0 0.00 0.02 0.02 44 1013.3
20260505183506 57 338 4.0 9.0 0.00 0.02 0.02 43 1013.3
20260505183021 58 334 3.0 8.0 0.00 0.02 0.02 40 1013.4
20260505182512 57 347 3.0 13.0 0.00 0.02 0.02 41 1013.4
20260505182007 58 318 5.0 13.0 0.00 0.02 0.02 44 1013.6
20260505181515 57 331 7.0 12.0 0.00 0.02 0.02 42 1013.4
20260505181011 56 325 4.0 10.0 0.00 0.02 0.02 44 1013.5
20260505180508 57 313 2.0 8.0 0.00 0.02 0.02 45 1013.5
20260505180050 57 355 3.0 8.0 0.00 0.02 0.02 47 1013.6
20260505175509 57 309 3.0 7.0 0.00 0.02 0.02 49 1013.6
20260505175015 55 307 1.0 7.0 0.00 0.02 0.02 47 1013.5
20260505174528 57 329 3.0 5.0 0.00 0.02 0.02 47 1013.6
20260505174006 55 355 1.0 10.0 0.00 0.02 0.02 47 1013.6
20260505173506 55 296 4.0 10.0 0.00 0.02 0.02 47 1013.8
20260505173022 56 241 1.0 8.0 0.00 0.02 0.02 53 1013.7
20260505172507 54 296 2.0 8.0 0.00 0.02 0.02 48 1013.9
20260505172008 55 328 2.0 6.0 0.00 0.02 0.02 50 1014.0
20260505171522 55 351 3.0 9.0 0.00 0.02 0.02 50 1013.9
20260505171007 55 312 3.0 9.0 0.00 0.02 0.02 53 1013.9
20260505170508 54 333 4.0 9.0 0.00 0.02 0.02 51 1014.0
20260505170017 54 325 4.0 8.0 0.00 0.02 0.02 51 1014.1
20260505165509 53 311 1.0 8.0 0.00 0.02 0.02 53 1014.0
20260505165009 52 360 2.0 8.0 0.00 0.02 0.02 52 1014.1
20260505164521 53 343 1.0 8.0 0.00 0.02 0.02 56 1014.0
20260505164009 53 284 2.0 8.0 0.00 0.02 0.02 57 1014.0
20260505163507 53 303 4.0 8.0 0.00 0.02 0.02 57 1014.1
20260505163020 53 355 3.0 5.0 0.00 0.02 0.02 59 1014.0
20260505162506 52 302 2.0 4.0 0.00 0.02 0.02 60 1013.8
20260505162010 51 322 1.0 4.0 0.00 0.02 0.02 61 1013.7
20260505161520 51 305 2.0 5.0 0.00 0.02 0.02 60 1013.7
20260505161007 50 319 2.0 5.0 0.00 0.02 0.02 61 1013.6
20260505160507 50 340 2.0 4.0 0.00 0.02 0.02 62 1013.6
20260505153022 49 309 3.0 8.0 0.00 0.02 0.02 65 1013.6
20260505152508 48 349 3.0 9.0 0.00 0.02 0.02 66 1013.5
20260505152010 48 311 3.0 9.0 0.00 0.02 0.02 66 1013.5
20260505151518 48 5 3.0 8.0 0.00 0.02 0.02 65 1013.4
20260505151009 48 338 3.0 8.0 0.00 0.02 0.02 64 1013.4
20260505150515 49 310 1.0 5.0 0.00 0.02 0.02 65 1013.2
20260505140510 48 317 2.0 4.0 0.00 0.02 0.02 63 1013.1
20260505125013 48 303 1.0 3.0 0.00 0.02 0.02 74 1011.9
20260505124522 48 302 1.0 3.0 0.00 0.02 0.02 75 1011.8
20260505124011 48 302 0.0 2.0 0.00 0.02 0.02 75 1011.6
20260505123512 47 302 1.0 2.0 0.00 0.02 0.02 77 1011.5
20260505123026 47 302 0.0 1.0 0.00 0.02 0.02 79 1011.6
20260505122510 47 302 0.0 0.0 0.00 0.02 0.02 79 1011.4
20260505122010 47 302 0.0 0.0 0.00 0.02 0.02 80 1011.3
20260505121528 46 302 0.0 0.0 0.00 0.02 0.02 80 1011.2
20260505121007 46 302 0.0 0.0 0.00 0.02 0.02 80 1011.1
20260505120504 46 302 0.0 0.0 0.00 0.02 0.02 82 1011.0
20260505120015 46 302 0.0 0.0 0.00 0.02 0.02 81 1011.0
20260505115503 46 302 0.0 0.0 0.00 0.02 0.02 81 1010.9
20260505115007 46 302 0.0 0.0 0.00 0.02 0.02 82 1010.7
20260505114519 46 302 0.0 0.0 0.00 0.02 0.02 82 1010.5
20260505114007 46 302 0.0 0.0 0.00 0.02 0.02 83 1010.5
20260505113506 46 302 0.0 0.0 0.00 0.02 0.02 83 1010.6
20260505113023 46 302 0.0 0.0 0.00 0.02 0.02 83 1010.4
20260505112506 46 302 0.0 0.0 0.00 0.02 0.02 84 1010.5
20260505112006 46 302 0.0 0.0 0.00 0.02 0.02 83 1010.6
20260505111516 46 302 0.0 0.0 0.00 0.02 0.02 84 1010.6
20260505111005 45 302 0.0 0.0 0.00 0.02 0.02 84 1010.7
20260505110505 45 302 0.0 0.0 0.00 0.02 0.02 84 1010.7
20260505101529 47 302 0.0 0.0 0.00 0.02 0.02 80 1010.9
20260505101004 47 302 0.0 0.0 0.00 0.02 0.02 80 1010.9
20260505100508 47 302 0.0 0.0 0.00 0.02 0.02 80 1010.9
20260505100020 47 302 0.0 0.0 0.00 0.02 0.02 81 1011.0
20260505095508 47 302 0.0 0.0 0.00 0.02 0.02 82 1010.9
20260505095002 47 302 0.0 0.0 0.00 0.02 0.02 83 1010.9
20260505094514 47 302 0.0 0.0 0.00 0.02 0.02 82 1010.9
20260505094008 48 302 0.0 0.0 0.00 0.02 0.02 81 1010.8
20260505093504 48 302 0.0 0.0 0.00 0.02 0.02 81 1010.8
20260505093023 48 302 0.0 0.0 0.00 0.02 0.02 81 1010.6
20260505092509 48 302 0.0 1.0 0.00 0.02 0.02 81 1010.6
20260505092009 48 302 0.0 2.0 0.00 0.02 0.02 82 1010.2
20260505091513 47 302 0.0 2.0 0.00 0.02 0.02 82 1010.0
20260505091007 47 302 0.0 0.0 0.00 0.02 0.02 82 1010.0
20260505090507 47 302 0.0 0.0 0.00 0.02 0.02 82 1010.1
20260505090026 48 302 0.0 0.0 0.00 0.02 0.02 82 1010.0
20260505085508 48 302 0.0 0.0 0.00 0.02 0.02 81 1010.0
20260505085009 48 302 0.0 0.0 0.00 0.02 0.02 81 1009.9
20260505084520 48 302 0.0 0.0 0.00 0.02 0.02 80 1009.9
20260505084007 48 302 0.0 0.0 0.00 0.02 0.02 81 1009.9
20260505083510 48 302 0.0 0.0 0.00 0.02 0.02 82 1010.0
20260505083023 48 302 0.0 0.0 0.00 0.02 0.02 83 1009.9
20260505082507 48 302 0.0 0.0 0.00 0.02 0.02 83 1009.8
20260505082007 48 302 0.0 0.0 0.00 0.02 0.02 83 1009.7
20260505081505 48 302 0.0 0.0 0.00 0.02 0.02 83 1009.6
20260505081004 48 302 0.0 0.0 0.00 0.02 0.02 83 1009.5
20260505080504 48 302 0.0 0.0 0.00 0.02 0.02 83 1009.3
20260505080003 48 302 0.0 0.0 0.01 0.02 0.02 83 1009.3
20260505075503 48 302 0.0 0.0 0.01 0.02 0.02 84 1009.1
20260505075002 47 302 0.0 0.0 0.01 0.02 0.02 85 1009.3
20260505074503 47 302 0.0 0.0 0.01 0.02 0.02 86 1009.3
20260505074002 47 302 0.0 0.0 0.01 0.02 0.02 85 1009.2
20260505073505 47 302 0.0 0.0 0.01 0.02 0.02 85 1009.4
20260505073005 47 302 0.0 0.0 0.01 0.02 0.02 85 1009.4
20260505072502 47 302 0.0 0.0 0.01 0.02 0.02 85 1009.4
20260505072002 47 302 0.0 0.0 0.01 0.02 0.02 87 1009.3
20260505071507 47 302 0.0 0.0 0.01 0.02 0.02 86 1009.2
20260505071002 47 302 0.0 0.0 0.02 0.02 0.02 86 1009.3
20260505070506 47 302 0.0 0.0 0.02 0.02 0.02 86 1009.3
20260505070003 47 302 0.0 0.0 0.01 0.01 0.01 86 1009.5
20260505065503 47 302 0.0 0.0 0.01 0.01 0.01 86 1009.1
20260505065003 47 302 0.0 0.0 0.01 0.01 0.01 86 1008.8
20260505064503 47 302 0.0 0.0 0.01 0.01 0.01 85 1008.9
20260505064003 47 302 0.0 0.0 0.01 0.01 0.01 83 1009.0
20260505063503 47 302 0.0 0.0 0.01 0.01 0.01 83 1009.3
20260505063003 47 302 0.0 1.0 0.01 0.01 0.01 82 1009.2
20260505062508 47 302 0.0 1.0 0.01 0.01 0.01 80 1009.1
20260505062001 48 302 0.0 2.0 0.01 0.01 0.01 75 1009.4
20260505061509 49 302 0.0 6.0 0.01 0.01 0.01 73 1009.9
20260505061001 49 302 1.0 6.0 0.00 0.00 0.00 71 1010.0
20260505060506 49 355 1.0 3.0 0.00 0.00 0.00 71 1009.6
20260505060010 48 5 0.0 2.0 0.00 0.00 0.00 72 1009.1
20260505055503 49 324 0.0 3.0 0.00 0.00 0.00 71 1009.1
20260505055003 49 324 1.0 3.0 0.00 0.00 0.00 71 1009.4
20260505054503 49 323 1.0 3.0 0.00 0.00 0.00 72 1009.5
20260505054002 49 323 0.0 4.0 0.00 0.00 0.00 72 1009.4
20260505053505 49 321 1.0 4.0 0.00 0.00 0.00 71 1009.6
20260505053007 49 325 1.0 4.0 0.00 0.00 0.00 71 1009.4
20260505052504 48 355 1.0 4.0 0.00 0.00 0.00 72 1009.1
20260505052006 48 26 0.0 2.0 0.00 0.00 0.00 72 1009.1
20260505051520 48 37 0.0 5.0 0.00 0.00 0.00 72 1009.0
20260505051005 49 37 1.0 5.0 0.00 0.00 0.00 71 1009.1
20260505050511 49 352 1.0 8.0 0.00 0.00 0.00 71 1009.3
20260505041508 54 320 5.0 12.0 0.00 0.00 0.00 47 1009.9
20260505041006 54 338 2.0 8.0 0.00 0.00 0.00 47 1009.6
20260505040506 54 338 2.0 9.0 0.00 0.00 0.00 46 1009.7
20260505040013 54 344 1.0 12.0 0.00 0.00 0.00 46 1009.5
20260505035503 55 333 3.0 12.0 0.00 0.00 0.00 45 1009.4
20260505035005 55 346 4.0 10.0 0.00 0.00 0.00 46 1009.2
20260505034514 54 355 2.0 7.0 0.00 0.00 0.00 47 1009.1
20260505034004 55 11 2.0 7.0 0.00 0.00 0.00 47 1009.0
20260505033504 55 347 3.0 15.0 0.00 0.00 0.00 46 1009.1
20260505033010 55 360 3.0 15.0 0.00 0.00 0.00 46 1008.7
20260505032504 55 300 4.0 9.0 0.00 0.00 0.00 45 1008.9
20260505032007 55 355 4.0 12.0 0.00 0.00 0.00 45 1008.7
20260505031507 55 343 3.0 12.0 0.00 0.00 0.00 45 1008.9
20260505031003 56 313 4.0 11.0 0.00 0.00 0.00 44 1009.1
20260505030503 56 331 3.0 11.0 0.00 0.00 0.00 45 1008.8
20260505030012 56 297 3.0 11.0 0.00 0.00 0.00 45 1008.5
20260505025504 56 292 4.0 11.0 0.00 0.00 0.00 44 1008.7
20260505025004 56 331 4.0 11.0 0.00 0.00 0.00 45 1008.4
20260505024516 56 326 4.0 13.0 0.00 0.00 0.00 45 1008.7
20260505024006 56 309 7.0 17.0 0.00 0.00 0.00 45 1008.1
20260505023505 56 347 4.0 17.0 0.00 0.00 0.00 45 1007.6
20260505023015 56 360 3.0 11.0 0.00 0.00 0.00 44 1007.7
20260505022507 56 340 3.0 14.0 0.00 0.00 0.00 44 1007.5
20260505022004 57 325 4.0 16.0 0.00 0.00 0.00 44 1007.8
20260505021516 57 340 7.0 16.0 0.00 0.00 0.00 44 1007.6
20260505021006 57 311 4.0 14.0 0.00 0.00 0.00 45 1007.4
20260505020506 57 332 5.0 12.0 0.00 0.00 0.00 44 1007.4
20260505020010 57 316 5.0 13.0 0.00 0.00 0.00 45 1007.4
20260505015503 57 348 6.0 13.0 0.00 0.00 0.00 44 1007.4
20260505015003 57 340 5.0 13.0 0.00 0.00 0.00 44 1007.4
20260505014508 58 360 5.0 16.0 0.00 0.00 0.00 44 1007.2
20260505014012 58 5 6.0 16.0 0.00 0.00 0.00 44 1006.9
20260505013507 58 351 4.0 14.0 0.00 0.00 0.00 43 1007.0
20260505013008 59 5 5.0 14.0 0.00 0.00 0.00 41 1006.7
20260505012504 60 339 6.0 20.0 0.00 0.00 0.00 40 1006.8
20260505012009 60 352 5.0 20.0 0.00 0.00 0.00 40 1006.5
20260505011509 60 24 5.0 18.0 0.00 0.00 0.00 39 1006.5
20260505011005 61 360 5.0 22.0 0.00 0.00 0.00 39 1006.5
20260505010508 61 319 7.0 22.0 0.00 0.00 0.00 39 1006.4
20260505010018 62 5 6.0 14.0 0.00 0.00 0.00 39 1006.5
20260505005507 62 333 6.0 15.0 0.00 0.00 0.00 37 1006.4
20260505005007 63 331 3.0 15.0 0.00 0.00 0.00 37 1006.1
20260505004518 63 355 5.0 15.0 0.00 0.00 0.00 37 1006.0
20260505004002 64 31 3.0 17.0 0.00 0.00 0.00 36 1006.0
20260505003507 64 336 6.0 17.0 0.00 0.00 0.00 35 1005.9
20260505003021 64 360 4.0 14.0 0.00 0.00 0.00 35 1005.8
20260505002506 65 317 4.0 14.0 0.00 0.00 0.00 35 1005.7
20260505002007 66 360 5.0 15.0 0.00 0.00 0.00 36 1005.5
20260505001514 67 333 4.0 15.0 0.00 0.00 0.00 35 1005.4
20260505001006 67 312 4.0 12.0 0.00 0.00 0.00 35 1005.3
20260505000505 67 349 4.0 14.0 0.00 0.00 0.00 36 1005.3
20260505000019 68 305 5.0 15.0 0.00 0.00 0.00 35 1005.3
20260504235508 68 337 4.0 15.0 0.00 0.00 0.00 35 1005.3
20260504235012 68 346 6.0 14.0 0.00 0.00 0.00 34 1005.2
20260504234520 68 5 4.0 11.0 0.00 0.00 0.00 34 1005.2
20260504234006 69 348 4.0 10.0 0.00 0.00 0.00 34 1005.2
20260504233506 69 346 4.0 10.0 0.00 0.00 0.00 33 1005.2
20260504233014 69 352 4.0 10.0 0.00 0.00 0.00 35 1005.0
20260504232506 70 318 3.0 11.0 0.00 0.00 0.00 33 1004.8
20260504232006 70 343 4.0 17.0 0.00 0.00 0.00 33 1004.7
20260504231518 71 325 6.0 17.0 0.00 0.00 0.00 32 1004.5
20260504231008 72 322 6.0 17.0 0.00 0.00 0.00 31 1004.5
20260504230508 72 303 7.0 17.0 0.00 0.00 0.00 31 1004.4
20260504230020 73 350 5.0 12.0 0.00 0.00 0.00 30 1004.3
20260504225514 73 321 3.0 14.0 0.00 0.00 0.00 34 1004.0
20260504225006 73 325 6.0 14.0 0.00 0.00 0.00 30 1003.9
20260504224504 74 338 5.0 13.0 0.00 0.00 0.00 30 1003.7
20260504224003 74 327 5.0 12.0 0.00 0.00 0.00 32 1003.6
20260504223503 74 360 4.0 17.0 0.00 0.00 0.00 31 1003.5
20260504223005 74 307 5.0 17.0 0.00 0.00 0.00 33 1003.6
20260504222504 75 352 7.0 13.0 0.00 0.00 0.00 33 1003.4
20260504222003 75 337 4.0 12.0 0.00 0.00 0.00 32 1003.3
20260504221503 76 337 3.0 10.0 0.00 0.00 0.00 31 1003.2
20260504221007 77 14 4.0 10.0 0.00 0.00 0.00 30 1003.1
20260504220503 77 323 4.0 11.0 0.00 0.00 0.00 30 1003.0
20260504220003 76 333 4.0 13.0 0.00 0.00 0.00 31 1003.0
20260504215503 77 328 5.0 13.0 0.00 0.00 0.00 30 1003.0
20260504215007 77 326 5.0 13.0 0.00 0.00 0.00 30 1002.8
20260504214504 78 333 4.0 10.0 0.00 0.00 0.00 32 1002.9
20260504214003 78 115 2.0 10.0 0.00 0.00 0.00 30 1002.8
20260504213503 78 294 4.0 14.0 0.00 0.00 0.00 32 1002.8
20260504213005 78 348 6.0 14.0 0.00 0.00 0.00 29 1002.8
20260504212504 79 5 4.0 10.0 0.00 0.00 0.00 31 1002.7
20260504212004 79 334 3.0 9.0 0.00 0.00 0.00 33 1002.7
20260504211513 79 349 2.0 10.0 0.00 0.00 0.00 32 1002.6
20260504211003 79 342 3.0 12.0 0.00 0.00 0.00 34 1002.6
20260504210505 78 355 6.0 13.0 0.00 0.00 0.00 33 1002.6
20260504210011 79 329 5.0 13.0 0.00 0.00 0.00 32 1002.6
20260504205506 79 351 4.0 10.0 0.00 0.00 0.00 33 1002.6
20260504205004 79 340 3.0 8.0 0.00 0.00 0.00 36 1002.5
20260504204507 79 36 4.0 13.0 0.00 0.00 0.00 32 1002.5
20260504204004 79 346 3.0 13.0 0.00 0.00 0.00 34 1002.5
20260504203506 80 324 4.0 12.0 0.00 0.00 0.00 37 1002.5
20260504203004 80 327 2.0 9.0 0.00 0.00 0.00 38 1002.4
20260504202508 80 360 2.0 12.0 0.00 0.00 0.00 37 1002.4
20260504202004 80 347 3.0 12.0 0.00 0.00 0.00 37 1002.4
20260504201505 80 301 6.0 11.0 0.00 0.00 0.00 37 1002.4